Dewpoint
61 67 67 67 66 66 66 65 65 66 65 66 66 66 67 68 68 67 66 64 62 60 59 56 52 50 50 49 51 54 54 56
60 63 66 65 65 65 65 65 65 65 64 64 64 65 66 67 66 66 64 62 61 60 57 54 50 48 47 46 50 52 53 54
59 61 64 65 65 65 65 64 63 63 62 62 61 62 62 64 65 64 63 62 60 57 55 51 48 47 46 45 45 45 45 49
61 63 64 64 64 64 63 61 60 59 57 56 59 60 61 62 63 63 62 60 56 56 53 52 48 47 43 41 40 40 40 45
61 62 63 63 63 62 60 59 57 56 55 57 60 60 59 59 59 59 59 56 55 55 53 50 49 44 39 38 38 43 42 47
59 59 58 57 57 57 57 56 55 54 54 58 59 58 56 55 54 54 53 51 52 51 52 47 42 40 38 36 35 42 43 49
56 56 55 53 52 51 50 50 48 54 56 59 58 57 56 56 53 53 52 51 53 52 50 45 40 38 37 36 35 38 45 45
56 56 56 55 54 53 54 55 55 57 58 58 58 58 57 57 54 54 54 53 52 51 50 42 39 37 35 35 35 34 44 45
55 55 54 55 54 56 57 56 57 57 56 56 57 59 58 58 56 54 54 53 53 52 48 43 40 38 35 36 35 34 32 40
55 55 54 54 53 54 55 55 54 54 54 56 57 59 58 58 56 53 54 53 49 44 40 39 36 37 36 36 36 34 32 32
53 53 53 53 53 53 53 52 52 53 54 57 52 54 59 58 56 56 52 48 45 42 42 39 40 40 38 38 36 35 33 33
53 52 52 53 52 50 49 49 52 55 54 56 52 54 57 59 58 55 52 49 46 43 42 44 41 41 41 38 39 38 36 34
53 53 53 52 50 48 46 47 54 54 55 56 56 56 57 58 57 54 51 48 44 44 43 41 42 43 41 42 44 42 38 36
53 53 53 51 50 48 49 51 55 56 57 57 56 57 58 59 54 53 52 48 46 45 43 43 44 43 42 41 38 39 40 38
52 52 52 52 52 52 54 54 56 57 57 57 59 59 60 59 55 53 52 50 45 45 45 44 43 44 42 40 36 34 34 36
50 51 51 52 55 55 55 52 54 56 57 58 59 59 58 58 56 54 52 49 45 46 47 46 45 43 43 42 39 36 33 31
51 54 55 55 56 56 56 52 55 57 58 57 58 58 57 57 56 54 51 48 47 47 47 47 45 42 40 38 36 38 36 32
53 53 55 56 57 57 57 52 55 56 57 57 57 56 56 56 56 54 50 49 48 47 47 45 44 42 39 38 34 31 30 29
51 50 51 56 57 57 57 54 54 56 57 57 55 55 55 55 55 54 51 50 50 49 47 44 41 39 39 37 37 32 32 32
49 49 50 54 57 57 58 57 56 56 57 57 56 55 55 54 54 53 51 50 48 47 46 44 42 41 39 38 36 36 36 34
Wind_Speed
26 29 35 32 31 29 28 26 25 26 27 25 24 23 23 23 26 25 24 23 22 20 17 14 12 12 16 16 21 22 17 14
20 21 28 27 27 29 28 27 26 26 27 26 24 23 23 24 24 25 24 22 21 20 18 14 11 11 13 15 21 21 15 15
15 23 25 27 27 26 27 29 28 27 25 26 22 16 17 15 20 23 22 22 21 21 17 15 11 9 11 12 19 13 15 13
24 13 21 20 21 22 22 22 18 19 18 16 15 15 14 18 20 21 20 19 21 16 16 12 8 9 11 12 14 14 14 13
18 19 18 19 16 17 15 17 19 15 18 14 17 15 10 12 16 13 12 15 12 11 11 7 11 10 10 13 16 13 13 10
18 18 18 15 15 13 17 22 18 16 18 16 14 14 10 13 15 14 14 13 14 11 10 11 12 10 10 10 12 12 13 10
19 17 18 15 21 17 17 18 23 16 13 15 13 14 13 16 16 15 13 13 11 13 12 11 10 10 9 9 7 12 12 9
20 18 16 18 16 17 17 10 9 13 15 16 16 15 16 16 17 14 11 13 12 13 12 11 10 9 7 7 8 9 12 11
20 20 19 15 17 10 13 12 9 12 13 11 15 14 15 14 14 14 16 13 13 11 10 9 10 8 8 7 6 9 8 10
21 20 18 16 13 13 16 11 13 11 8 13 9 9 11 12 12 14 12 10 14 14 12 10 9 10 7 6 9 9 10 9
23 22 22 17 15 14 14 15 10 5 11 12 11 8 10 13 12 10 15 15 14 13 8 9 8 8 11 11 9 10 9 9
24 21 19 15 15 13 15 13 13 13 17 11 6 10 12 15 14 15 15 14 13 11 10 5 6 8 4 7 9 9 9 10
21 19 17 17 17 15 16 16 12 11 9 11 14 14 16 17 13 18 15 15 14 12 7 8 5 3 2 2 3 6 7 8
16 19 20 19 17 16 12 12 9 15 15 17 18 19 18 16 18 18 16 14 14 13 10 5 3 7 5 2 0 2 2 6
21 23 24 22 21 17 15 13 13 16 17 17 18 18 13 12 19 18 18 15 18 16 13 12 9 6 6 4 2 4 1 4
24 24 27 23 22 20 21 19 17 16 16 14 15 17 15 14 17 21 20 17 21 18 15 10 8 11 4 4 2 4 4 3
26 25 25 25 24 24 21 18 20 16 16 18 15 15 16 17 14 17 18 18 18 19 16 12 9 10 7 4 3 3 4 6
28 28 28 28 28 27 23 22 21 19 18 18 18 16 15 14 13 11 17 18 20 19 17 17 12 10 7 5 5 4 4 3
30 28 25 30 28 27 27 25 26 25 22 20 20 18 15 16 17 15 16 17 17 18 19 17 14 10 8 6 4 3 1 3
31 31 30 27 27 26 25 20 22 21 23 20 20 20 18 15 16 14 16 16 18 16 17 11 13 10 9 7 6 3 2 6
Wind_Direction
360 158 153 137 131 127 126 124 123 120 116 113 111 112 113 114 118 119 118 116 115 111 106 97 80 57 49 31 56 87 96 94
8 330 140 127 120 121 118 117 116 116 116 114 112 114 115 118 121 122 123 121 118 115 112 108 93 65 50 32 61 94 90 86
70 298 95 112 117 113 113 114 114 115 113 115 112 112 110 111 121 121 125 125 126 119 131 123 113 84 53 44 83 97 94 88
141 99 89 109 118 121 121 116 115 121 121 115 109 109 121 120 118 118 121 125 121 142 130 123 94 68 61 53 75 104 94 93
123 123 133 130 135 126 122 117 126 122 117 117 111 109 111 120 111 115 122 123 128 124 122 115 81 100 82 68 81 100 96 96
110 114 116 118 111 104 115 122 116 110 115 111 123 117 137 121 119 135 133 143 139 143 126 113 101 100 88 78 80 107 104 99
104 105 111 117 111 108 107 123 124 139 147 143 149 133 168 128 142 143 149 148 155 142 122 113 104 91 84 88 79 91 116 109
119 111 100 103 103 113 124 137 140 128 135 150 130 163 148 146 155 160 158 169 161 138 140 135 128 118 101 95 99 105 128 130
128 120 115 111 114 129 123 116 136 120 128 152 175 168 157 151 163 156 160 164 153 148 146 134 147 147 146 146 142 130 115 133
122 133 119 102 101 101 124 117 105 113 124 202 168 129 160 143 142 166 163 154 150 141 139 143 159 163 167 180 176 151 140 128
132 133 132 128 104 109 110 102 114 199 205 207 169 166 174 166 173 169 153 149 146 151 157 170 182 175 179 178 163 162 172 155
149 149 143 127 132 144 142 171 184 209 217 217 200 197 203 192 178 164 166 156 159 161 174 179 178 165 126 191 194 185 181 169
149 147 150 150 155 165 179 192 207 222 238 224 218 220 221 198 174 169 170 164 172 173 165 150 143 147 72 327 222 236 188 187
161 163 165 173 173 182 183 203 218 210 212 214 212 215 209 182 175 178 167 168 172 169 155 154 165 166 154 176 108 37 266 232
177 178 177 181 181 192 213 204 198 199 207 210 205 204 201 178 179 178 178 175 174 173 169 181 179 200 182 162 174 205 343 334
184 182 181 188 196 203 211 205 197 202 201 203 194 185 189 191 183 187 182 174 173 176 178 185 161 177 174 218 152 146 183 273
194 196 196 199 202 205 214 199 195 188 194 195 189 187 192 201 202 185 182 174 175 178 176 175 154 162 177 169 199 209 197 208
199 202 200 200 201 206 215 205 185 185 190 189 185 182 187 199 196 187 189 178 183 184 175 162 160 151 165 172 179 172 191 196
198 205 203 199 201 203 209 198 189 189 186 183 180 186 197 201 200 204 201 184 174 163 161 154 151 160 170 182 147 123 153 240
202 207 215 207 204 206 208 201 196 194 186 183 188 191 197 196 203 207 196 170 153 149 146 150 144 156 171 159 161 160 273 244